Location: Newark
(25.6108°S, 54.5803°W)
Time: 05:01:19
(UTC+00:00)

deb Explorer IX - Pass Details

Date: 30 October 2020
Orbit: 538 x 1104 km, 38.8° (Epoch: 29 November)

Event Time Altitude Azimuth Distance (km) Brightness Sun altitude
Rises 18:39:20 0° 303° (WNW) 3,710 ? 42.5°
Reaches altitude 10° 18:42:09 10° 302° (WNW) 2,687 ? 41.8°
Maximum altitude 18:48:36 89° 217° (SW) 861 ? 40.4°
Drops below altitude 10° 18:54:05 10° 122° (ESE) 2,296 ? 39.1°
Sets 18:56:21 0° 121° (ESE) 3,139 ? 38.6°
